Waarnemingen

Advertentie
Mijn weer
Helsingborg, Zweden (2611): temperatuur & dauwpunt: 08.12.2017 17:00:00 - 14.12.2017 17:00:00 (CET)Helsingborg, Zweden (2611): windsnelheid & windstoten: 08.12.2017 17:00:00 - 14.12.2017 17:00:00 (CET)Helsingborg, Zweden (2611): windrichting: 08.12.2017 17:00:00 - 14.12.2017 17:00:00 (CET)Helsingborg, Zweden (2611): luchtdruk: 08.12.2017 17:00:00 - 14.12.2017 17:00:00 (CET)Helsingborg, Zweden (2611): zicht: 08.12.2017 17:00:00 - 14.12.2017 17:00:00 (CET)Helsingborg, Zweden (2611): neerslag: 08.12.2017 17:00:00 - 14.12.2017 17:00:00 (CET)
Datum & Tijd tt [°C] td [°C] ff [km/u] ff [kn] fx [km/u] fx [kn] dd ppp [hPa] vv [km] rr [mm]
14.12.2017 17:00:00 2,6 1,7 15 8 35 19 ZW 981,7 8 0,9
14.12.2017 16:00:00 2,1 1,4 14 7 36 19 W 981,3 8 2,0
14.12.2017 15:00:00 2,8 1,8 20 11 44 24 WZW 980,3 9 0,2
14.12.2017 14:00:00 2,4 1,4 19 10 44 24 WZW 979,6 9 0,0
14.12.2017 13:00:00 1,6 1,2 10 6 24 13 ZW 978,5 3,8 0,3
14.12.2017 12:00:00 0,8 0,4 12 7 22 12 ZW 978,5 6 0,7
14.12.2017 11:00:00 0,2 -0,2 5 3 13 7 Z 978,2 2,2 0,8
14.12.2017 10:00:00 0,6 0,2 5 3 19 10 OZO 978,0 4,1 0,4
14.12.2017 09:00:00 0,6 0,0 5 3 26 14 OZO 977,9 4,7 0,7
14.12.2017 08:00:00 1,2 0,5 12 6 27 15 ZO 978,2 10 0,4
14.12.2017 07:00:00 2,1 1,2 12 6 27 15 ZO 978,7 8 0,4
14.12.2017 06:00:00 2,7 1,8 11 6 26 14 ZO 979,3 23 0,0
14.12.2017 05:00:00 2,9 2,0 10 6 26 14 ZZO 980,5 22 0,0
14.12.2017 04:00:00 2,7 2,0 7 4 31 17 ZO 981,4 7 0,0
14.12.2017 03:00:00 2,6 1,6 20 11 31 17 Z 982,5 50 0,0
14.12.2017 02:00:00 2,5 1,2 16 9 39 21 Z 983,2 50 0,0
14.12.2017 01:00:00 2,5 1,2 20 11 46 25 Z 984,4 12 0,0
14.12.2017 00:00:00 2,8 1,5 24 13 46 25 Z 985,2 50 0,3
13.12.2017 23:00:00 2,8 1,8 25 14 54 29 Z 986,4 13 0,4
13.12.2017 22:00:00 2,7 1,7 28 15 54 29 Z 987,7 13 0,3
13.12.2017 21:00:00 2,5 1,6 29 15 53 29 Z 989,1 8 0,5
13.12.2017 20:00:00 2,4 1,4 32 18 53 29 Z 990,6 9 0,9
13.12.2017 19:00:00 2,1 1,2 26 14 58 32 Z 992,1 8 1,1
13.12.2017 18:00:00 2,4 1,3 32 17 58 32 Z 993,3 8 0,6
13.12.2017 17:00:00 2,4 1,2 34 18 57 31 Z 994,5 10 0,5
13.12.2017 16:00:00 3,1 0,9 35 19 56 30 Z 995,5 24 0,0
13.12.2017 15:00:00 - - - - - - - - - -
13.12.2017 14:00:00 - - - - - - - - - -
13.12.2017 13:00:00 2,7 0,1 32 17 54 29 Z 999,2 34 0,0
13.12.2017 12:00:00 2,4 0,0 29 16 45 25 Z 1000,5 21 0,0
13.12.2017 11:00:00 2,2 -0,4 25 14 44 24 Z 1001,9 22 0,0
13.12.2017 10:00:00 1,8 -0,6 26 14 41 22 Z 1002,9 15 0,0
13.12.2017 09:00:00 1,7 -0,7 22 12 42 23 Z 1003,7 16 0,0
13.12.2017 08:00:00 2,1 -0,7 27 14 50 27 ZZW 1004,1 19 0,0
13.12.2017 07:00:00 2,1 -0,8 27 15 50 27 ZZW 1004,5 27 0,0
13.12.2017 06:00:00 2,2 -0,1 25 13 45 24 ZZW 1004,3 24 0,0
13.12.2017 05:00:00 2,6 0,8 24 13 38 21 ZZW 1004,1 24 0,0
13.12.2017 04:00:00 2,7 1,2 24 13 39 21 ZZW 1004,3 26 0,0
13.12.2017 03:00:00 2,3 1,0 22 12 39 21 ZZW 1004,1 9 0,1
13.12.2017 02:00:00 2,0 0,5 17 9 37 20 ZZW 1004,1 37 0,0
13.12.2017 01:00:00 2,3 0,2 17 9 29 15 ZZW 1003,7 47 0,0
13.12.2017 00:00:00 1,9 -0,4 14 7 30 16 ZW 1003,7 47 0,0
12.12.2017 23:00:00 1,2 -0,7 16 9 30 16 ZW 1003,5 50 0,0
12.12.2017 22:00:00 1,6 -0,8 11 6 31 17 ZW 1003,3 49 0,0
12.12.2017 21:00:00 2,0 -1,3 11 6 41 22 WZW 1002,7 48 0,0
12.12.2017 20:00:00 2,3 -2,2 14 8 41 22 WNW 1002,0 50 0,0
12.12.2017 19:00:00 2,2 -2,5 18 10 39 21 WNW 1000,8 50 0,0
12.12.2017 18:00:00 1,9 -2,1 19 10 39 21 NW 999,4 50 0,0
12.12.2017 17:00:00 1,0 -1,7 18 10 42 23 NW 998,1 48 0,0
12.12.2017 16:00:00 1,1 -1,5 22 12 43 23 NNW 996,6 50 0,0
12.12.2017 15:00:00 1,0 -1,6 20 11 43 23 NNW 995,0 50 0,0
12.12.2017 14:00:00 1,2 -0,9 19 11 36 19 NW 993,5 44 0,0
12.12.2017 13:00:00 1,1 -0,2 22 12 43 23 NW 992,1 37 0,0
12.12.2017 12:00:00 0,8 -0,1 26 14 43 23 NNW 990,3 37 0,0
12.12.2017 11:00:00 0,7 0,1 19 10 32 17 NNW 988,9 36 0,0
12.12.2017 10:00:00 0,4 0,1 20 11 31 17 NNW 987,8 15 0,1
12.12.2017 09:00:00 0,3 0,0 14 7 21 11 NNW 986,7 6 0,8
12.12.2017 08:00:00 0,2 -0,1 12 7 16 9 NNW 985,9 3,0 1,1
12.12.2017 07:00:00 0,2 -0,1 10 5 16 9 N 985,1 6 0,2
12.12.2017 06:00:00 0,2 -0,1 9 5 17 9 N 984,9 5 0,4
12.12.2017 05:00:00 0,2 -0,1 11 6 17 9 N 984,7 5 0,4
12.12.2017 04:00:00 0,1 -0,2 11 6 15 8 N 984,6 2,2 0,9
12.12.2017 03:00:00 0,1 -0,2 8 5 12 7 N 984,8 1,7 1,7
12.12.2017 02:00:00 0,1 -0,3 8 4 13 7 NNO 985,0 1,9 1,2
12.12.2017 01:00:00 0,1 -0,3 8 5 13 7 NO 985,1 2,3 0,8
12.12.2017 00:00:00 0,2 -0,2 7 4 12 7 NNO 985,8 3,0 0,7
11.12.2017 23:00:00 0,2 -0,2 8 5 16 9 NO 986,4 2,9 0,9
11.12.2017 22:00:00 0,2 -0,2 5 3 19 10 NNO 986,8 1,9 1,7
11.12.2017 21:00:00 0,3 -0,3 9 5 23 12 NNO 986,7 1,9 0,9
11.12.2017 20:00:00 0,3 -0,3 14 8 23 12 NO 986,2 2,5 0,9
11.12.2017 19:00:00 0,7 -0,5 14 8 24 13 NO 987,2 6 0,1
11.12.2017 18:00:00 0,6 -0,7 13 7 24 13 NO 987,4 28 0,0
11.12.2017 17:00:00 0,4 -0,9 13 7 21 11 NNO 987,5 22 0,0
11.12.2017 16:00:00 0,3 -1,1 12 6 27 14 NO 988,5 28 0,0
11.12.2017 15:00:00 0,2 -1,4 11 6 27 14 NO 988,6 26 0,0
11.12.2017 14:00:00 0,2 -1,7 15 8 22 12 NNO 988,1 30 0,0
11.12.2017 13:00:00 0,2 -2,0 11 6 21 12 NNO 989,2 36 0,0
11.12.2017 12:00:00 0,2 -2,0 12 6 28 15 NNO 988,2 38 0,0
11.12.2017 11:00:00 -0,1 -2,3 14 7 28 15 NO 987,6 43 0,0
11.12.2017 10:00:00 -0,6 -2,3 14 8 25 14 NNO 986,8 22 0,0
11.12.2017 09:00:00 -0,7 -2,3 10 5 19 11 NNO 988,1 43 0,0
11.12.2017 08:00:00 -1,2 -2,6 9 5 21 11 NNO 987,1 35 0,0
11.12.2017 07:00:00 -0,7 -2,3 11 6 21 11 NNO 985,9 34 0,0
11.12.2017 06:00:00 -0,4 -2,0 10 6 23 12 NNO 985,7 34 0,0
11.12.2017 05:00:00 -0,1 -2,3 7 4 23 12 NO 985,0 42 0,0
11.12.2017 04:00:00 -0,2 -2,6 11 6 19 11 NO 984,3 48 0,0
11.12.2017 03:00:00 0,2 -2,7 10 6 22 12 ONO 984,3 50 0,0
11.12.2017 02:00:00 -0,2 -2,6 9 5 22 12 ONO 984,2 50 0,0
11.12.2017 01:00:00 0,4 -2,3 11 6 22 12 O 984,1 50 0,0
11.12.2017 00:00:00 0,6 -1,6 10 6 23 12 O 984,4 50 0,0
10.12.2017 23:00:00 0,2 -0,8 9 5 26 14 OZO 984,3 24 0,1
10.12.2017 22:00:00 0,0 -0,8 13 7 26 14 OZO 984,6 5 0,1
10.12.2017 21:00:00 0,3 -1,6 10 5 24 13 O 984,9 19 0,1
10.12.2017 20:00:00 0,6 -2,7 11 6 26 14 OZO 985,5 19 0,0
10.12.2017 19:00:00 0,9 -2,5 13 7 26 14 ZO 985,8 50 0,0
10.12.2017 18:00:00 1,2 -3,0 13 7 32 17 ZO 986,3 50 0,0
10.12.2017 17:00:00 1,3 -1,2 7 4 32 17 ZO 986,7 34 0,0
10.12.2017 16:00:00 1,4 -2,5 14 7 40 21 Z 987,0 50 0,0
10.12.2017 15:00:00 1,5 -2,6 16 9 41 22 Z 987,6 46 0,0
10.12.2017 14:00:00 1,9 -1,7 27 14 41 22 Z 988,1 43 0,0
10.12.2017 13:00:00 2,1 -0,8 19 10 35 19 Z 988,8 37 0,0
10.12.2017 12:00:00 2,0 -0,4 21 11 37 20 Z 989,5 41 0,0
10.12.2017 11:00:00 1,8 -0,1 21 11 37 20 ZZW 990,2 34 0,0
10.12.2017 10:00:00 1,7 -0,2 15 8 31 17 ZZW 990,9 50 0,0
10.12.2017 09:00:00 1,7 -0,7 16 8 31 17 ZZW 991,6 50 0,0
10.12.2017 08:00:00 1,6 -0,8 16 9 31 17 ZZW 992,0 50 0,0
10.12.2017 07:00:00 1,6 -0,8 17 9 35 19 ZZW 992,6 50 0,0
10.12.2017 06:00:00 1,5 -0,9 16 9 35 19 ZW 993,1 50 0,0
10.12.2017 05:00:00 1,4 -0,4 19 10 33 18 ZZW 993,7 50 0,0
10.12.2017 04:00:00 1,3 -0,8 18 10 40 22 ZZW 993,8 50 0,0
10.12.2017 03:00:00 1,6 -0,5 21 11 40 22 ZW 994,5 50 0,0
10.12.2017 02:00:00 1,6 -0,4 19 10 41 22 ZZW 994,9 50 0,0
10.12.2017 01:00:00 1,6 -0,3 19 11 41 22 ZW 995,4 48 0,0
10.12.2017 00:00:00 1,7 -0,2 25 13 40 22 ZW 995,7 44 0,0
09.12.2017 23:00:00 1,4 -0,5 23 12 39 21 ZW 995,9 46 0,0
09.12.2017 22:00:00 1,7 -0,6 19 11 34 18 ZW 996,0 37 0,0
09.12.2017 21:00:00 2,2 -0,6 18 10 34 18 ZW 995,9 42 0,2
09.12.2017 20:00:00 3,0 -0,6 18 10 33 18 ZW 996,0 36 0,0
09.12.2017 19:00:00 2,7 -0,8 14 7 34 18 WZW 995,8 29 0,1
09.12.2017 18:00:00 2,9 -1,3 13 7 34 18 WZW 995,8 40 0,0
09.12.2017 17:00:00 3,8 -1,2 15 8 29 16 W 995,5 28 0,0
09.12.2017 16:00:00 4,4 -1,2 11 6 31 17 W 995,4 25 0,0
09.12.2017 15:00:00 5,2 -1,1 9 5 37 20 W 995,0 26 0,0
09.12.2017 14:00:00 5,0 -0,6 18 10 41 22 W 994,7 21 0,0
09.12.2017 13:00:00 5,2 0,2 18 10 41 22 W 994,1 19 0,0
09.12.2017 12:00:00 5,2 0,4 18 10 36 20 W 993,8 16 0,0
09.12.2017 11:00:00 5,1 0,7 19 10 36 19 W 993,6 17 0,0
09.12.2017 10:00:00 4,8 1,1 19 10 34 18 WZW 993,1 21 0,0
09.12.2017 09:00:00 4,5 1,4 19 10 34 18 WZW 992,7 22 0,0
09.12.2017 08:00:00 4,1 1,5 17 9 41 22 ZW 992,4 23 0,0
09.12.2017 07:00:00 3,7 1,6 23 12 45 25 ZW 992,2 31 0,0
09.12.2017 06:00:00 3,6 1,3 22 12 45 25 ZW 992,2 39 0,0
09.12.2017 05:00:00 3,5 1,1 25 14 45 25 ZW 992,5 44 0,0
09.12.2017 04:00:00 3,3 0,5 26 14 46 25 ZW 992,9 33 0,0
09.12.2017 03:00:00 3,2 0,4 27 15 46 25 ZZW 993,3 26 0,0
09.12.2017 02:00:00 3,0 0,2 25 14 44 24 ZZW 993,5 22 0,0
09.12.2017 01:00:00 2,7 -0,2 26 14 42 23 ZW 993,9 24 0,0
09.12.2017 00:00:00 2,5 0,1 22 12 42 23 ZW 994,4 22 0,0
08.12.2017 23:00:00 2,5 0,1 22 12 40 22 ZW 994,8 47 0,0
08.12.2017 22:00:00 2,7 0,6 20 11 36 19 ZW 994,8 46 0,0
08.12.2017 21:00:00 3,2 0,4 18 10 40 22 ZW 994,7 28 0,0
08.12.2017 20:00:00 3,4 0,6 18 10 41 22 ZW 994,6 34 0,0
08.12.2017 19:00:00 3,7 0,4 21 11 41 22 ZW 994,3 26 0,0
08.12.2017 18:00:00 3,5 0,4 20 11 38 21 ZW 994,1 24 0,0
08.12.2017 17:00:00 3,8 0,5 22 12 38 21 ZW 994,1 22 0,0

tt = temperatuur
td = dauwpunt
ff = windsnelheid
fx = windstoten
dd = windrichting
ppp = luchtdruk
vv = zicht
rr = neerslag

Weerstations in de omgeving